Location: Coupvray
(48.8929°N, 2.7967°E)
Time: 08:52:11
(UTC+00:00)

Cosmos 1441 Rocket - Pass Details

Date: 14 July 2020
Orbit: 495 x 541 km, 81.1° (Epoch: 14 August)

Event Time Altitude Azimuth Distance (km) Brightness Sun altitude
Exits shadow 00:10:20 55° 186° (S) 653 3.3 -19.4°
Maximum altitude 00:11:09 87° 101° (ESE) 546 3.2 -19.4°
Drops below altitude 10° 00:15:07 10° 13° (NNE) 1,797 7.2 -19.3°
Sets 00:17:16 0° 13° (NNE) 2,686 8.5 -19.3°
